LLM889 UWSG-UUEE

Flight info

Callsign LLM889
Flight time 1h 14m
Altitude 36000
Route SOKUR1K SOKUR T661 GEKPA L736 OLOPI OLOPI3W
Aircraft A320/M-SDE3FGHIRWY/LB1

Departure

Time 2026-04-30 19:03
Airport Gagarin International Airport (UWSG)

Arrival

Time 2026-04-30 20:18
Airport Sheremetyevo International Airport (UUEE)
Time Latitude Longitude Altitude Speed Heading
2026-04-30 18:30 51.71696 46.17035 112 ft 0 kts
2026-04-30 18:51 51.71685 46.17034 109 ft 3 kts
2026-04-30 18:52 51.71666 46.17028 109 ft 3 kts 25°
2026-04-30 18:52 51.71649 46.17012 110 ft 3 kts 50°
2026-04-30 18:52 51.71639 46.16985 109 ft 3 kts 75°
2026-04-30 18:52 51.71636 46.16953 109 ft 3 kts 90°
2026-04-30 18:53 51.71636 46.16927 111 ft 1 kts 91°
2026-04-30 18:53 51.71636 46.16925 111 ft 0 kts 91°
2026-04-30 18:55 51.71636 46.16928 111 ft 1 kts 91°
2026-04-30 18:56 51.71631 46.17089 111 ft 7 kts 91°
2026-04-30 18:56 51.71629 46.17188 111 ft 9 kts 92°
2026-04-30 18:56 51.71627 46.17280 111 ft 8 kts 92°
2026-04-30 18:57 51.71615 46.17412 111 ft 4 kts 129°
2026-04-30 18:57 51.71594 46.17423 111 ft 3 kts 177°
2026-04-30 18:57 51.71531 46.17425 111 ft 10 kts 182°
2026-04-30 18:58 51.71412 46.17416 111 ft 4 kts 182°
2026-04-30 18:58 51.71389 46.17415 111 ft 3 kts 182°
2026-04-30 18:58 51.71374 46.17414 111 ft 2 kts 182°
2026-04-30 18:59 51.71259 46.17466 109 ft 13 kts 110°
2026-04-30 19:00 51.71242 46.18122 108 ft 29 kts 92°
2026-04-30 19:00 51.71233 46.18444 109 ft 28 kts 93°
2026-04-30 19:00 51.71223 46.18885 112 ft 17 kts 91°
2026-04-30 19:01 51.71254 46.19188 113 ft 9 kts 79°
2026-04-30 19:01 51.71230 46.19246 113 ft 5 kts 177°
2026-04-30 19:02 51.71215 46.19197 113 ft 0 kts 276°
2026-04-30 19:02 51.71227 46.18759 111 ft 84 kts 272°
2026-04-30 19:03 51.71310 46.15558 670 ft 169 kts 271°
2026-04-30 19:03 51.71362 46.11253 1986 ft 210 kts 274°
2026-04-30 19:04 51.71472 46.06217 3158 ft 234 kts 275°
2026-04-30 19:04 51.72007 46.00918 4563 ft 252 kts 303°
2026-04-30 19:05 51.74817 45.97625 6339 ft 258 kts 332°
2026-04-30 19:05 51.78059 45.94885 7933 ft 269 kts 332°
2026-04-30 19:06 51.80928 45.90869 9423 ft 282 kts 309°
2026-04-30 19:06 51.82202 45.88403 10159 ft 289 kts 308°
2026-04-30 19:06 51.83997 45.84895 10551 ft 318 kts 308°
2026-04-30 19:07 51.87964 45.77130 12165 ft 339 kts 308°
2026-04-30 19:07 51.89476 45.74165 12855 ft 344 kts 307°
2026-04-30 19:08 51.92561 45.68102 14186 ft 354 kts 307°
2026-04-30 19:08 51.95731 45.61871 15379 ft 363 kts 307°
2026-04-30 19:08 51.97345 45.58689 15946 ft 368 kts 306°
2026-04-30 19:09 52.00637 45.52190 17102 ft 377 kts 306°
2026-04-30 19:09 52.02314 45.48876 17684 ft 382 kts 306°
2026-04-30 19:09 52.04006 45.45523 18269 ft 387 kts 306°
2026-04-30 19:10 52.07450 45.38675 19353 ft 395 kts 306°
2026-04-30 19:10 52.09198 45.35195 19923 ft 399 kts 306°
2026-04-30 19:11 52.15997 45.21644 22021 ft 412 kts 305°
2026-04-30 19:11 52.17810 45.18013 22563 ft 415 kts 305°
2026-04-30 19:12 52.19643 45.14343 23085 ft 419 kts 305°
2026-04-30 19:12 52.21492 45.10644 23613 ft 423 kts 305°
2026-04-30 19:12 52.23356 45.06909 24059 ft 426 kts 305°
2026-04-30 19:13 52.27090 44.99391 25058 ft 427 kts 305°
2026-04-30 19:13 52.30821 44.91840 26068 ft 427 kts 305°
2026-04-30 19:13 52.31425 44.90614 26227 ft 427 kts 305°
2026-04-30 19:14 52.38164 44.76930 27935 ft 428 kts 306°
2026-04-30 19:14 52.40034 44.73118 28399 ft 429 kts 306°
2026-04-30 19:15 52.41881 44.69348 28847 ft 430 kts 306°
2026-04-30 19:15 52.45631 44.61682 29729 ft 431 kts 306°
2026-04-30 19:15 52.47442 44.57778 30163 ft 430 kts 299°
2026-04-30 19:16 52.48946 44.53536 30492 ft 430 kts 297°
2026-04-30 19:16 52.50430 44.49269 30796 ft 432 kts 297°
2026-04-30 19:16 52.53409 44.40637 31432 ft 435 kts 297°
2026-04-30 19:17 52.54898 44.36303 31837 ft 435 kts 297°
2026-04-30 19:17 52.57871 44.27646 32615 ft 435 kts 297°
2026-04-30 19:17 52.59358 44.23319 32997 ft 435 kts 297°
2026-04-30 19:18 52.61825 44.16106 33653 ft 435 kts 297°
2026-04-30 19:18 52.63805 44.10292 34177 ft 435 kts 297°
2026-04-30 19:18 52.65287 44.05934 34482 ft 436 kts 297°
2026-04-30 19:19 52.66768 44.01574 34793 ft 436 kts 297°
2026-04-30 19:19 52.68229 43.97264 35083 ft 436 kts 297°
2026-04-30 19:19 52.69709 43.92893 35380 ft 436 kts 297°
2026-04-30 19:20 52.74097 43.79875 36093 ft 438 kts 297°
2026-04-30 19:21 52.78531 43.66691 36145 ft 438 kts 297°
2026-04-30 19:22 52.84414 43.49057 36156 ft 437 kts 297°
2026-04-30 19:23 52.93154 43.22574 36176 ft 438 kts 297°
2026-04-30 19:24 52.97525 43.09264 36186 ft 438 kts 297°
2026-04-30 19:25 53.04773 42.86992 36196 ft 438 kts 297°
2026-04-30 19:26 53.10520 42.69167 36205 ft 438 kts 297°
2026-04-30 19:27 53.14834 42.55729 36207 ft 438 kts 297°
2026-04-30 19:28 53.19131 42.42248 36215 ft 438 kts 297°
2026-04-30 19:29 53.24812 42.24314 36213 ft 438 kts 297°
2026-04-30 19:30 53.30487 42.06285 36214 ft 438 kts 297°
2026-04-30 19:31 53.36127 41.88203 36215 ft 439 kts 297°
2026-04-30 19:31 53.40356 41.74581 36224 ft 439 kts 297°
2026-04-30 19:32 53.43167 41.65477 36224 ft 440 kts 296°
2026-04-30 19:32 53.45846 41.56749 36226 ft 440 kts 296°
2026-04-30 19:33 53.48636 41.47619 36221 ft 440 kts 296°
2026-04-30 19:33 53.51427 41.38483 36226 ft 439 kts 296°
2026-04-30 19:34 53.54216 41.29336 36221 ft 439 kts 296°
2026-04-30 19:35 53.58381 41.15597 36226 ft 440 kts 296°
2026-04-30 19:35 53.61142 41.06416 36233 ft 439 kts 296°
2026-04-30 19:36 53.63895 40.97217 36224 ft 439 kts 296°
2026-04-30 19:36 53.67999 40.83472 36236 ft 440 kts 296°
2026-04-30 19:37 53.70744 40.74237 36235 ft 440 kts 296°
2026-04-30 19:37 53.73478 40.65011 36226 ft 440 kts 296°
2026-04-30 19:38 53.76206 40.55745 36229 ft 440 kts 296°
2026-04-30 19:38 53.78923 40.46477 36229 ft 440 kts 296°
2026-04-30 19:39 53.81637 40.37202 36235 ft 440 kts 296°
2026-04-30 19:39 53.84347 40.27912 36235 ft 440 kts 296°
2026-04-30 19:40 53.87030 40.18679 36230 ft 440 kts 296°
2026-04-30 19:40 53.89729 40.09366 36230 ft 440 kts 296°
2026-04-30 19:41 53.92411 40.00036 36233 ft 440 kts 296°
2026-04-30 19:41 53.95090 39.90680 36237 ft 440 kts 296°
2026-04-30 19:42 53.97766 39.81315 36241 ft 440 kts 296°
2026-04-30 19:42 54.00436 39.71935 36236 ft 440 kts 296°
2026-04-30 19:43 54.03095 39.62554 36231 ft 440 kts 296°
2026-04-30 19:44 54.07051 39.48506 36232 ft 441 kts 296°
2026-04-30 19:44 54.09701 39.39058 36229 ft 441 kts 296°
2026-04-30 19:45 54.11900 39.31197 36232 ft 442 kts 296°
2026-04-30 19:45 54.14538 39.21738 36236 ft 442 kts 296°
2026-04-30 19:46 54.17167 39.12246 36235 ft 442 kts 296°
2026-04-30 19:46 54.19784 39.02745 36236 ft 442 kts 296°
2026-04-30 19:47 54.22589 38.93422 36238 ft 441 kts 307°
2026-04-30 19:47 54.24636 38.89546 36239 ft 439 kts 320°
2026-04-30 19:47 54.27133 38.86583 36235 ft 438 kts 333°
2026-04-30 19:48 54.32588 38.81932 36233 ft 438 kts 334°
2026-04-30 19:48 54.38019 38.77309 36227 ft 439 kts 334°
2026-04-30 19:49 54.43488 38.72614 36230 ft 439 kts 334°
2026-04-30 19:49 54.51681 38.65553 36232 ft 439 kts 334°
2026-04-30 19:50 54.57140 38.60845 36234 ft 439 kts 334°
2026-04-30 19:50 54.62603 38.56113 36240 ft 439 kts 334°
2026-04-30 19:51 54.68055 38.51366 36237 ft 439 kts 334°
2026-04-30 19:51 54.73502 38.46613 36239 ft 438 kts 334°
2026-04-30 19:52 54.78955 38.41878 36239 ft 438 kts 334°
2026-04-30 19:52 54.84366 38.37032 36235 ft 438 kts 327°
2026-04-30 19:53 54.86744 38.33706 35890 ft 439 kts 316°
2026-04-30 19:53 54.88863 38.29989 35400 ft 437 kts 316°
2026-04-30 19:53 54.90979 38.26218 34977 ft 434 kts 315°
2026-04-30 19:53 54.93063 38.22465 34584 ft 430 kts 315°
2026-04-30 19:54 54.95129 38.18730 34206 ft 426 kts 316°
2026-04-30 19:54 54.97205 38.14986 33758 ft 422 kts 316°
2026-04-30 19:54 54.99208 38.11383 33325 ft 418 kts 316°
2026-04-30 19:54 55.01220 38.07768 32893 ft 413 kts 316°
2026-04-30 19:55 55.03212 38.04192 32459 ft 409 kts 316°
2026-04-30 19:55 55.05186 38.00641 32042 ft 405 kts 316°
2026-04-30 19:55 55.07135 37.97119 31633 ft 401 kts 317°
2026-04-30 19:55 55.09058 37.93633 31236 ft 397 kts 317°
2026-04-30 19:56 55.10962 37.90176 30846 ft 393 kts 317°
2026-04-30 19:56 55.12849 37.86745 30465 ft 389 kts 317°
2026-04-30 19:56 55.14719 37.83346 30057 ft 386 kts 317°
2026-04-30 19:56 55.16592 37.80032 29599 ft 380 kts 322°
2026-04-30 19:57 55.18671 37.77252 29155 ft 374 kts 327°
2026-04-30 19:57 55.20774 37.74588 28730 ft 371 kts 327°
2026-04-30 19:57 55.22857 37.71939 28328 ft 368 kts 327°
2026-04-30 19:57 55.24924 37.69303 27938 ft 366 kts 327°
2026-04-30 19:58 55.26970 37.66691 27560 ft 363 kts 328°
2026-04-30 19:58 55.28998 37.64101 27277 ft 358 kts 328°
2026-04-30 19:58 55.31001 37.61537 26950 ft 354 kts 328°
2026-04-30 19:58 55.32982 37.58995 26610 ft 351 kts 328°
2026-04-30 19:59 55.34946 37.56467 26241 ft 349 kts 328°
2026-04-30 19:59 55.36901 37.53952 25870 ft 346 kts 328°
2026-04-30 19:59 55.40765 37.48979 25131 ft 342 kts 328°
2026-04-30 20:00 55.42675 37.46511 24753 ft 339 kts 328°
2026-04-30 20:00 55.44568 37.44060 24386 ft 337 kts 328°
2026-04-30 20:00 55.46452 37.41622 24005 ft 335 kts 328°
2026-04-30 20:00 55.48298 37.39229 23611 ft 333 kts 328°
2026-04-30 20:01 55.52366 37.35943 22700 ft 318 kts 354°
2026-04-30 20:01 55.54563 37.35725 22228 ft 315 kts
2026-04-30 20:01 55.56748 37.35710 21762 ft 314 kts
2026-04-30 20:02 55.61106 37.35665 20875 ft 312 kts
2026-04-30 20:02 55.63272 37.35641 20445 ft 311 kts
2026-04-30 20:03 55.67584 37.35589 19612 ft 309 kts
2026-04-30 20:03 55.69735 37.35569 19191 ft 308 kts
2026-04-30 20:03 55.71875 37.35550 18789 ft 307 kts
2026-04-30 20:03 55.74013 37.35494 18372 ft 307 kts 359°
2026-04-30 20:04 55.76142 37.35311 17920 ft 306 kts 358°
2026-04-30 20:04 55.78262 37.35060 17506 ft 305 kts 357°
2026-04-30 20:04 55.80346 37.34794 17095 ft 304 kts 356°
2026-04-30 20:05 55.84545 37.34335 16271 ft 301 kts 359°
2026-04-30 20:05 55.86640 37.34254 15869 ft 300 kts 360°
2026-04-30 20:05 55.90803 37.34221 14856 ft 295 kts
2026-04-30 20:06 55.92841 37.34210 14319 ft 291 kts 360°
2026-04-30 20:06 55.94862 37.34192 13774 ft 290 kts 360°
2026-04-30 20:06 55.96877 37.34165 13186 ft 287 kts 359°
2026-04-30 20:06 55.98869 37.34133 12605 ft 285 kts 359°
2026-04-30 20:07 56.00842 37.34096 12039 ft 282 kts 359°
2026-04-30 20:07 56.02805 37.34051 11488 ft 284 kts 359°
2026-04-30 20:07 56.06686 37.33958 10406 ft 276 kts 359°
2026-04-30 20:08 56.08597 37.33918 9845 ft 273 kts 359°
2026-04-30 20:08 56.10488 37.33884 9257 ft 270 kts 359°
2026-04-30 20:08 56.12354 37.33850 8676 ft 266 kts 359°
2026-04-30 20:08 56.14177 37.34067 8113 ft 261 kts 14°
2026-04-30 20:09 56.15800 37.35513 7551 ft 263 kts 39°
2026-04-30 20:09 56.16929 37.38078 7002 ft 264 kts 64°
2026-04-30 20:09 56.16948 37.44438 5889 ft 266 kts 111°
2026-04-30 20:10 56.15552 37.50557 4766 ft 262 kts 111°
2026-04-30 20:10 56.14879 37.53501 4540 ft 246 kts 111°
2026-04-30 20:10 56.14256 37.56228 4402 ft 227 kts 111°
2026-04-30 20:11 56.13136 37.61129 4138 ft 201 kts 111°
2026-04-30 20:11 56.12608 37.63437 4043 ft 199 kts 111°
2026-04-30 20:11 56.12085 37.65727 4012 ft 198 kts 111°
2026-04-30 20:12 56.10453 37.69526 3794 ft 197 kts 159°
2026-04-30 20:12 56.09160 37.70183 3762 ft 186 kts 166°
2026-04-30 20:12 56.07951 37.70746 3713 ft 173 kts 166°
2026-04-30 20:13 56.06823 37.71261 3584 ft 164 kts 171°
2026-04-30 20:13 56.05734 37.71075 3423 ft 155 kts 206°
2026-04-30 20:13 56.04863 37.70034 3362 ft 151 kts 218°
2026-04-30 20:13 56.03992 37.68877 2984 ft 160 kts 218°
2026-04-30 20:14 56.03080 37.67669 2662 ft 164 kts 218°
2026-04-30 20:14 56.02182 37.66477 2528 ft 156 kts 218°
2026-04-30 20:14 56.01342 37.65357 2506 ft 148 kts 220°
2026-04-30 20:14 56.00660 37.64031 2495 ft 144 kts 239°
2026-04-30 20:15 56.00301 37.62393 2512 ft 142 kts 254°
2026-04-30 20:15 56.00015 37.60697 2507 ft 142 kts 256°
2026-04-30 20:15 55.99745 37.58994 2382 ft 140 kts 256°
2026-04-30 20:15 55.99491 37.57325 2205 ft 138 kts 256°
2026-04-30 20:16 55.99244 37.55673 2021 ft 137 kts 257°
2026-04-30 20:16 55.98998 37.54026 1822 ft 137 kts 256°
2026-04-30 20:16 55.98755 37.52384 1633 ft 136 kts 256°
2026-04-30 20:16 55.98513 37.50751 1430 ft 135 kts 256°
2026-04-30 20:17 55.98273 37.49128 1216 ft 135 kts 256°
2026-04-30 20:17 55.98034 37.47517 1001 ft 134 kts 255°
2026-04-30 20:17 55.97790 37.45917 849 ft 134 kts 256°
2026-04-30 20:17 55.97557 37.44303 684 ft 134 kts 255°
2026-04-30 20:18 55.97330 37.42793 642 ft 112 kts 255°
2026-04-30 20:18 55.97203 37.41955 638 ft 26 kts 260°
2026-04-30 20:18 55.97182 37.41768 645 ft 19 kts 256°
2026-04-30 20:18 55.97147 37.41526 642 ft 21 kts 255°
2026-04-30 20:19 55.97159 37.41356 640 ft 14 kts 320°
2026-04-30 20:19 55.97200 37.41328 644 ft 2 kts 345°
2026-04-30 20:19 55.97230 37.41315 641 ft 0 kts 345°
2026-04-30 20:20 55.97254 37.41304 643 ft 6 kts 345°
2026-04-30 20:20 55.97311 37.41277 640 ft 10 kts 345°
2026-04-30 20:20 55.97386 37.41241 640 ft 13 kts 345°
2026-04-30 20:20 55.97469 37.41202 642 ft 10 kts 345°
2026-04-30 20:21 55.97528 37.41223 640 ft 10 kts 57°
2026-04-30 20:21 55.97559 37.41353 639 ft 13 kts 75°
2026-04-30 20:21 55.97585 37.41526 640 ft 14 kts 75°
2026-04-30 20:21 55.97635 37.41600 646 ft 11 kts 357°
2026-04-30 20:22 55.97704 37.41569 639 ft 8 kts 346°
2026-04-30 20:22 55.97746 37.41556 639 ft 10 kts
2026-04-30 20:22 55.97825 37.41574 642 ft 2 kts 33°
2026-04-30 20:23 55.97836 37.41608 647 ft 4 kts 70°
2026-04-30 20:23 55.97839 37.41631 639 ft 2 kts 75°
2026-04-30 20:23 55.97840 37.41636 639 ft 0 kts 75°